Location: Apeadero de Los Molinos-Guadarrama
(40.7091°N, 4.0689°W)
Time: 13:03:52
(UTC+00:00)

Landsat 7 - Pass Details

Date: 14 May 2021
Orbit: 701 x 703 km, 98.0° (Epoch: 18 June)

Event Time Altitude Azimuth Distance (km) Brightness Sun altitude
Exits shadow 20:53:19 21° 153° (SSE) 1,559 5.0 -14.6°
Maximum altitude 20:56:28 68° 75° (ENE) 760 3.8 -15.0°
Drops below altitude 10° 21:01:13 10° 353° (N) 2,179 7.1 -15.7°
Sets 21:03:29 0° 351° (N) 3,101 8.0 -16.0°
